• în Republica Moldova
  • Lista ţărilor
  • Pe 7 zile
  • Temperatura apei
  • Hartă satelitară
  • Meteo pe hartă
  • Widget-uri
  • user-avatar
    Intrare

    Meteo pe oră la Prutz

    Astăzi, 27 Iunie, Marţi

    Timp Temperatura Precipitaţii Vânt Presiune Umiditate
    00:00 +14°C° 1,2 mm 1 m/s 633 mmHg 95%
    01:00 +13°C° 0 mm 1 m/s 633 mmHg 96%
    02:00 +13°C° 0,7 mm 1 m/s 633 mmHg 96%
    03:00 +13°C° 0,7 mm 1 m/s 633 mmHg 96%
    04:00 +12°C° 0,7 mm 1 m/s 633 mmHg 96%
    05:00 +13°C° 0,3 mm 1 m/s 633 mmHg 94%
    06:00 +14°C° 0,3 mm 1 m/s 633 mmHg 92%
    07:00 +15°C° 0,3 mm 1 m/s 633 mmHg 91%
    08:00 +16°C° 0,2 mm 1 m/s 633 mmHg 82%
    09:00 +19°C° 0,2 mm 1 m/s 634 mmHg 73%
    10:00 +21°C° 0,2 mm 1 m/s 634 mmHg 65%
    11:00 +21°C° 1 mm 1 m/s 634 mmHg 66%
    12:00 +21°C° 1 mm 1 m/s 634 mmHg 68%
    13:00 +21°C° 1 mm 1 m/s 633 mmHg 69%
    14:00 +21°C° 1,1 mm 1 m/s 633 mmHg 71%
    15:00 +21°C° 1,1 mm 1 m/s 633 mmHg 73%
    16:00 +21°C° 1,1 mm 1 m/s 633 mmHg 75%
    17:00 +20°C° 0,7 mm 1 m/s 632 mmHg 79%
    18:00 +19°C° 0,7 mm 1 m/s 632 mmHg 83%
    19:00 +19°C° 0,7 mm 1 m/s 631 mmHg 87%
    20:00 +16°C° 0,3 mm 1 m/s 631 mmHg 90%
    21:00 +14°C° 0,3 mm 1 m/s 630 mmHg 92%
    22:00 +13°C° 0,3 mm 2 m/s 630 mmHg 95%
    23:00 +13°C° 0 mm 2 m/s 630 mmHg 94%

    Mâine, 28 Iunie, Miercuri

    Timp Temperatura Precipitaţii Vânt Presiune Umiditate
    00:00 +13°C° 0 mm 2 m/s 629 mmHg 94%
    01:00 +13°C° 0 mm 2 m/s 629 mmHg 93%
    02:00 +12°C° 0 mm 2 m/s 629 mmHg 93%
    03:00 +12°C° 0 mm 2 m/s 628 mmHg 93%
    04:00 +12°C° 0 mm 2 m/s 628 mmHg 93%
    05:00 +13°C° 0,1 mm 2 m/s 628 mmHg 91%
    06:00 +14°C° 0,1 mm 2 m/s 628 mmHg 88%
    07:00 +15°C° 0,1 mm 2 m/s 628 mmHg 86%
    08:00 +16°C° 0,5 mm 2 m/s 628 mmHg 83%
    09:00 +17°C° 0,5 mm 2 m/s 629 mmHg 79%
    10:00 +18°C° 0,5 mm 2 m/s 629 mmHg 76%
    11:00 +18°C° 0,9 mm 2 m/s 629 mmHg 74%
    12:00 +18°C° 0,9 mm 2 m/s 628 mmHg 72%
    13:00 +19°C° 0,9 mm 2 m/s 628 mmHg 70%
    14:00 +18°C° 1,3 mm 2 m/s 628 mmHg 73%
    15:00 +18°C° 1,3 mm 2 m/s 627 mmHg 76%
    16:00 +18°C° 1,3 mm 1 m/s 627 mmHg 79%
    17:00 +16°C° 1,7 mm 1 m/s 626 mmHg 85%
    18:00 +15°C° 1,7 mm 1 m/s 625 mmHg 90%
    19:00 +14°C° 1,7 mm 1 m/s 625 mmHg 96%
    20:00 +13°C° 2 mm 1 m/s 624 mmHg 96%
    21:00 +13°C° 2 mm 1 m/s 624 mmHg 97%
    22:00 +12°C° 2 mm 1 m/s 624 mmHg 97%
    23:00 +11°C° 0,7 mm 1 m/s 623 mmHg 97%

    Poimâine, 29 Iunie, Joi

    Timp Temperatura Precipitaţii Vânt Presiune Umiditate
    00:00 +11°C° 0,7 mm 1 m/s 623 mmHg 97%
    01:00 +11°C° 0,7 mm 1 m/s 623 mmHg 97%
    02:00 +10°C° 0,6 mm 1 m/s 623 mmHg 97%
    03:00 +10°C° 0,6 mm 1 m/s 622 mmHg 97%
    04:00 +10°C° 0,6 mm 1 m/s 622 mmHg 98%
    05:00 +10°C° 1 mm 1 m/s 623 mmHg 97%
    06:00 +10°C° 1 mm 1 m/s 623 mmHg 96%
    07:00 +11°C° 1 mm 1 m/s 624 mmHg 96%
    08:00 +11°C° 1,4 mm 1 m/s 624 mmHg 95%
    09:00 +11°C° 1,4 mm 1 m/s 624 mmHg 94%
    10:00 +11°C° 1,4 mm 1 m/s 625 mmHg 94%
    11:00 +12°C° 1,4 mm 1 m/s 625 mmHg 92%
    12:00 +12°C° 1,4 mm 1 m/s 625 mmHg 90%
    13:00 +12°C° 1,4 mm 2 m/s 625 mmHg 88%
    14:00 +12°C° 1,2 mm 2 m/s 625 mmHg 87%
    15:00 +12°C° 1,2 mm 2 m/s 626 mmHg 87%
    16:00 +12°C° 1,2 mm 2 m/s 626 mmHg 87%
    17:00 +10°C° 0,9 mm 2 m/s 626 mmHg 89%
    18:00 +10°C° 0,9 mm 1 m/s 626 mmHg 91%
    19:00 +10°C° 0,9 mm 1 m/s 626 mmHg 94%
    20:00 +9°C° 1,1 mm 1 m/s 626 mmHg 95%
    21:00 +8°C° 1,1 mm 1 m/s 626 mmHg 96%
    22:00 +8°C° 1,1 mm 1 m/s 627 mmHg 97%
    23:00 +7°C° 0,8 mm 1 m/s 627 mmHg 97%

    30 Iunie, Vineri

    Timp Temperatura Precipitaţii Vânt Presiune Umiditate
    00:00 +7°C° 0,8 mm 1 m/s 627 mmHg 96%
    01:00 +7°C° 0,8 mm 1 m/s 627 mmHg 96%
    02:00 +6°C° 0,3 mm 1 m/s 627 mmHg 96%
    03:00 +6°C° 0,3 mm 1 m/s 627 mmHg 95%
    04:00 +5°C° 0,3 mm 1 m/s 627 mmHg 95%
    05:00 +7°C° 0,1 mm 1 m/s 628 mmHg 93%
    06:00 +8°C° 0,1 mm 1 m/s 628 mmHg 92%
    07:00 +10°C° 0,1 mm 1 m/s 629 mmHg 90%
    08:00 +11°C° 0,2 mm 1 m/s 629 mmHg 82%
    09:00 +12°C° 0,2 mm 1 m/s 630 mmHg 74%
    10:00 +14°C° 0,2 mm 2 m/s 631 mmHg 66%
    11:00 +14°C° 0,6 mm 2 m/s 631 mmHg 66%
    12:00 +15°C° 0,6 mm 2 m/s 631 mmHg 66%
    13:00 +15°C° 0,6 mm 2 m/s 631 mmHg 66%
    14:00 +15°C° 0,9 mm 2 m/s 631 mmHg 67%
    15:00 +14°C° 0,9 mm 2 m/s 631 mmHg 68%
    16:00 +14°C° 0,9 mm 2 m/s 631 mmHg 69%
    17:00 +13°C° 0,8 mm 2 m/s 631 mmHg 75%
    18:00 +12°C° 0,8 mm 1 m/s 631 mmHg 80%
    19:00 +11°C° 0,8 mm 1 m/s 631 mmHg 86%
    20:00 +9°C° 0,3 mm 1 m/s 630 mmHg 89%
    21:00 +8°C° 0,3 mm 1 m/s 630 mmHg 91%
    22:00 +7°C° 0,3 mm 1 m/s 630 mmHg 94%
    23:00 +7°C° 0,1 mm 1 m/s 630 mmHg 94%

    1 Iulie, Sâmbătă

    Timp Temperatura Precipitaţii Vânt Presiune Umiditate
    00:00 +6°C° 0,1 mm 1 m/s 630 mmHg 93%
    01:00 +6°C° 0,1 mm 1 m/s 630 mmHg 93%
    02:00 +6°C° 0,1 mm 1 m/s 630 mmHg 93%
    03:00 +6°C° 0,1 mm 1 m/s 630 mmHg 92%
    04:00 +5°C° 0,1 mm 1 m/s 629 mmHg 92%
    05:00 +7°C° 0 mm 1 m/s 630 mmHg 87%
    06:00 +8°C° 0 mm 0 m/s 631 mmHg 82%
    07:00 +10°C° 0 mm 0 m/s 632 mmHg 77%
    08:00 +12°C° 0 mm 0 m/s 632 mmHg 67%
    09:00 +15°C° 0 mm 1 m/s 633 mmHg 57%
    10:00 +18°C° 0 mm 1 m/s 634 mmHg 47%
    11:00 +18°C° 0,3 mm 1 m/s 634 mmHg 50%
    12:00 +18°C° 0,3 mm 1 m/s 634 mmHg 53%
    13:00 +17°C° 0,3 mm 2 m/s 633 mmHg 56%
    14:00 +16°C° 0,7 mm 2 m/s 633 mmHg 63%
    15:00 +15°C° 0,7 mm 2 m/s 633 mmHg 69%
    16:00 +14°C° 0,7 mm 2 m/s 633 mmHg 76%
    17:00 +13°C° 0,6 mm 2 m/s 633 mmHg 81%
    18:00 +12°C° 0,6 mm 1 m/s 633 mmHg 85%
    19:00 +12°C° 0,6 mm 1 m/s 633 mmHg 90%
    20:00 +10°C° 0,2 mm 1 m/s 633 mmHg 92%
    21:00 +9°C° 0,2 mm 1 m/s 633 mmHg 95%
    22:00 +8°C° 0,2 mm 1 m/s 633 mmHg 97%
    23:00 +7°C° 0 mm 1 m/s 633 mmHg 97%

    2 Iulie, Duminică

    Timp Temperatura Precipitaţii Vânt Presiune Umiditate
    00:00 +7°C° 0 mm 1 m/s 633 mmHg 97%
    01:00 +7°C° 0 mm 1 m/s 633 mmHg 97%
    02:00 +7°C° 0,2 mm 1 m/s 633 mmHg 97%
    03:00 +8°C° 0,2 mm 1 m/s 634 mmHg 97%
    04:00 +8°C° 0,2 mm 1 m/s 634 mmHg 97%
    05:00 +8°C° 0,4 mm 1 m/s 634 mmHg 96%
    06:00 +9°C° 0,4 mm 1 m/s 634 mmHg 95%
    07:00 +9°C° 0,4 mm 1 m/s 635 mmHg 94%
    08:00 +10°C° 0,4 mm 1 m/s 635 mmHg 90%
    09:00 +11°C° 0,4 mm 1 m/s 636 mmHg 86%
    10:00 +12°C° 0,4 mm 1 m/s 636 mmHg 82%
    11:00 +13°C° 0,2 mm 1 m/s 636 mmHg 78%
    12:00 +14°C° 0,2 mm 1 m/s 637 mmHg 74%
    13:00 +15°C° 0,2 mm 2 m/s 637 mmHg 70%
    14:00 +16°C° 0,1 mm 2 m/s 637 mmHg 69%
    15:00 +16°C° 0,1 mm 2 m/s 637 mmHg 68%
    16:00 +16°C° 0,1 mm 2 m/s 637 mmHg 66%
    17:00 +15°C° 0,1 mm 2 m/s 636 mmHg 72%
    18:00 +14°C° 0,1 mm 2 m/s 636 mmHg 78%
    19:00 +13°C° 0,1 mm 2 m/s 636 mmHg 84%
    20:00 +12°C° 0,1 mm 1 m/s 636 mmHg 88%
    21:00 +11°C° 0,1 mm 1 m/s 636 mmHg 92%
    22:00 +10°C° 0,1 mm 1 m/s 636 mmHg 96%
    23:00 +10°C° 0,3 mm 1 m/s 636 mmHg 97%
    Arată mai mult